Hourly Weather Roundup
Issued by NWS

Current Version | Previous Version | Text Only | Print | Product List | Glossary On
Versions: 1 2 3 4 5 6 7 8 9 10 11 12 13 14 15 16 17 18 19 20 21 22 23 24 25 26 27 28 29 30 31 32 33 34 35 36 37 38 39 40 41 42 43 44 45 46 47 48 49 50
000
NZUS43 KILX 010710
HWRCRS

CRS HOURLY WEATHER ROUNDUP
NATIONAL WEATHER SERVICE, LINCOLN IL
200 AM CDT SAT AUG 01 2015


CITY           SKY/WX    TMP DP  RH WIND       PRES   REMARKS
CHAMPAIGN      CLEAR     64  59  83 N3        30.03F
LAWRENCEVILLE  CLEAR     72  68  87 NW5       30.01F
PEORIA         CLEAR     70  60  70 CALM      30.04F
SPRINGFIELD    MOCLDY    70  66  87 CALM      30.04F
$$


CITY           SKY/WX    TMP DP  RH WIND       PRES   REMARKS
BLOOMINGTON    CLEAR     69  58  68 W7        30.05F
DECATUR        CLEAR     73  58  59 NW9       30.04S
EFFINGHAM      CLEAR     69  65  86 CALM      30.04F
FLORA          CLEAR     70  66  87 W5        30.03F
GALESBURG      CLEAR     60  58  93 CALM      30.05F
JACKSONVILLE   PTCLDY    71  67  89 CALM      30.05S
LACON          CLEAR     67  58  74 CALM      30.03S
LINCOLN        CLEAR     67  62  85 CALM      30.04S
LITCHFIELD     PTCLDY    67  64  91 NW5       30.04F

CITY           SKY/WX    TMP DP  RH WIND       PRES   REMARKS
MACOMB         PTCLDY    65  61  87 N7        30.07F
MATTOON        PTCLDY    70  61  73 NW7       30.03S
MOLINE         CLEAR     62  58  86 CALM      30.04F
OLNEY          CLEAR     70  68  94 CALM      30.02F
PARIS          CLEAR     63  61  92 CALM      30.03F
PONTIAC        CLEAR     62  60  94 W5        30.03F
QUINCY         PTCLDY    74  66  76 E3        30.05F
RANTOUL        CLEAR     66  61  84 NW7       30.03S
ROBINSON       PTCLDY    68  67  96 CALM      30.03S
TAYLORVILLE    CLEAR     66  64  94 CALM      30.04F
TERRE HAUTE    CLEAR     65  61  87 W3        30.02S
$$


CITY           SKY/WX    TMP DP  RH WIND       PRES   REMARKS
BURLINGTON     CLEAR     64  61  90 N6        30.05F
CHICAGO        CLEAR     68  52  56 W9        29.99S
DES MOINES     PTCLDY    72  64  76 SW3       30.06F
EVANSVILLE     CLEAR     73  69  87 CALM      30.02F
INDIANAPOLIS   CLEAR     68  59  73 NW7       29.99F
KANSAS CITY    PTCLDY    73  68  84 S8        30.06F
MILWAUKEE      PTCLDY    69  51  52 W3        29.96F
ST LOUIS       MOCLDY    78  67  68 CALM      30.04F HX  80
$$




USA.gov is the U.S. government's official web portal to all federal, state and local government web resources and services.